Location: Boiro
(42.6475°N, 8.8834°W)
Time: 20:21:42
(UTC+02:00)

AO-73 - Pass Details

Date: 04 May 2024
Orbit: 560 x 625 km, 97.7° (Epoch: 20 May)

Event Time Altitude Azimuth Distance (km) Brightness Sun altitude
Rises 04:24:18 0° 36° (NE) 2,920 ? -25.9°
Reaches altitude 10° 04:28:15 10° 72° (ENE) 1,998 ? -25.5°
Maximum altitude 04:29:30 11° 89° (E) 1,922 ? -25.4°
Drops below altitude 10° 04:30:44 10° 105° (ESE) 1,987 ? -25.3°
Enters shadow 04:32:17 - 123° (ESE) 2,244 ? -25.1°
